Hourly Data Report for February 11, 2002

SHERBROOKE A
QUEBEC

45°26'00.000" N
71°41'00.000" W
241.40 m
7028124
71610
YSC

Download Data

Hourly Data (February 2002)
Hourly Data Report for February 11, 2002
TIME
LST
Temp Definition
°C
Dew Point Definition
°C
Rel Hum Definition
%
Precip. Amount Definition
mm

Wind Dir Definition
10's deg

Wind Spd Definition
km/h
Visibility Definition
km
Stn Press Definition
kPa
Hmdx Definition


Wind Chill Definition


Weather Definition


00:00 0.9 -0.1 93   30 11 2.1 97.48     Rain
01:00 0.1 -1.6 88   32 19 4.0 97.36      
02:00 -2.1 -4.5 84   32 9 1.4 97.39   -6 Snow
03:00 -4.3 -7.2 80   32 17 1.6 97.42   -10 Snow
04:00 -6.2 -9.3 79   31 17 1.1 97.44   -12 Snow
05:00 -7.7 -11.6 74   33 22 2.1 97.56   -15  
06:00 -9.3 -13.2 73   32 19 1.9 97.75   -17 Snow
07:00 -11.2 -15.7 69   32 11 3.5 97.94   -17 Snow
08:00 -13.5 -19.0 63   31 11 24.1 98.12   -20 Mostly Cloudy
09:00 -14.5 -20.2 62   32 17 24.1 98.25   -23 Mainly Clear
10:00 -15.2 -21.6 58   32 22 24.1 98.32   -25 Mainly Clear
11:00 -15.7 -22.2 57   32 22 24.1 98.41   -25 Mainly Clear
12:00 -15.9 -22.1 59   30 22 24.1 98.49   -26 Mainly Clear
13:00 -15.9 -22.7 56   30 17 24.1 98.56   -25 Clear
14:00 -16.2 -22.8 57   29 26 24.1 98.69   -27 Clear
15:00 -16.0 -23.8 51   30 15 24.1 98.80   -24 Clear
16:00 -16.7 -24.9 49   29 19 24.1 98.92   -26 Clear
17:00 -17.6 -25.7 49   29 7 24.1 98.94   -23 Clear
18:00 -19.2 -25.9 55   27 7 15.0 99.05   -25  
19:00 -20.8 -26.4 61   28 6 15.0 99.09   -26  
20:00 -22.2 -26.9 66   23 6 15.0 99.12   -28  
21:00 -22.9 -27.4 67   12 6 15.0 99.09   -28  
22:00 -24.0 -27.9 70     0 15.0 99.07      
23:00 -24.9 -29.2 67   8 6 15.0 99.04   -31  

Notes on Data Quality.

Legend

  • E = Estimated
  • M = Missing
  • NA = Not Available*
  • [empty] = Indicates an unobserved value
Date modified: